Regional Weather Roundup
Issued by NWS

Home | Current Version | Previous Version | Graphics & Text | Print | Product List | Glossary On
Versions: 1 2 3 4 5 6 7 8 9 10 11 12 13 14 15 16 17 18 19 20 21 22 23 24 25 26 27 28 29 30 31 32 33 34 35 36 37 38 39 40 41 42 43 44 45 46 47 48 49 50
000
ASUS43 KMKX 160100
RWRWI

WISCONSIN REGIONAL WEATHER ROUNDUP
NATIONAL WEATHER SERVICE MILWAUKEE/SULLIVAN WI
800 PM CDT MON SEP 15 2014

NOTE: "FAIR" INDICATES FEW OR NO CLOUDS BELOW 12,000 FEET WITH NO
SIGNIFICANT WEATHER AND/OR OBSTRUCTIONS TO VISIBILITY.

WIZ001-002-006>008-014>016-023>028-160200-
NORTHWEST WISCONSIN

CITY           SKY/WX    TMP DP  RH WIND       PRES   REMARKS
SUPERIOR ARPT  PTCLDY    49  40  70 W5        30.16S
ASHLAND        CLEAR     43  38  82 SW6       30.16S
HAYWARD        CLEAR     46  39  76 CALM      30.17S
SIREN          CLEAR     47  40  76 SW3       30.18S
RICE LAKE      CLEAR     51  37  58 NW3       30.19S
LADYSMITH      CLEAR     50  39  67 NW5       30.18S
EAU CLAIRE     NOT AVBL
MENOMONIE      CLEAR     53  38  57 NW6       30.19R
NEW RICHMOND   CLEAR     49  40  69 CALM      30.20R
OSCEOLA        CLEAR     53  40  61 CALM      30.22R
$$

WIZ003>005-009-010-017-018-160200-
NORTH CENTRAL WISCONSIN

CITY           SKY/WX    TMP DP  RH WIND       PRES   REMARKS
WOODRUFF       CLEAR     47  37  68 CALM      30.15S
RHINELANDER    CLEAR     45  37  73 NW3       30.16R
EAGLE RIVER    CLEAR     45  34  65 CALM      30.15R
LAND O LAKES   CLOUDY    46  38  72 CALM      30.15S
PHILLIPS       CLEAR     45  38  76 CALM      30.16S
TOMAHAWK       CLEAR     45  37  75 CALM      30.16R
MEDFORD        CLEAR     47  38  72 NW5       30.16R
MERRILL        MOCLDY    50  38  64 NW3       30.15R
$$

WIZ029-030-035-036-043>047-160200-
CENTRAL WISCONSIN

CITY           SKY/WX    TMP DP  RH WIND       PRES   REMARKS
WAUSAU         CLEAR     50  40  68 W7        30.14R
MOSINEE        CLEAR     50  39  66 NW7       30.16R
MARSHFIELD     CLEAR     46  40  79 NW7       30.16R
STEVENS POINT  CLEAR     52  40  63 NW6       30.15R
WAUPACA        PTCLDY    55  50  82 W5        30.13S
WAUTOMA        NOT AVBL
WISC RAPIDS    CLEAR     49  42  77 NW5       30.17R
CAMP DOUGLAS   NOT AVBL
$$

WIZ011>013-019>022-031-037>040-048>050-160200-
NORTHEAST WISCONSIN

CITY           SKY/WX    TMP DP  RH WIND       PRES   REMARKS
ANTIGO         CLEAR     48  40  74 NW5       30.14R
STURGEON BAY   PTCLDY    52  46  82 CALM      30.12R
GREEN BAY      CLEAR     50  48  93 SW3       30.12R
MANITOWOC      NOT AVBL
APPLETON       PTCLDY    54  46  76 SW7       30.13S
CLINTONVILLE   CLEAR     54  43  66 NW3       30.12R
OSHKOSH        CLEAR     53  47  79 CALM      30.14R
$$

WIZ032>034-041-042-053>061-160200-
SOUTHWEST WISCONSIN

CITY           SKY/WX    TMP DP  RH WIND       PRES   REMARKS
LA CROSSE      CLEAR     52  44  74 CALM      30.18R
SPARTA         CLEAR     48  44  86 CALM      30.18R
VIROQUA        FAIR      48  45  87 W3        30.18R
BOSCOBEL       CLEAR     49  47  93 CALM      30.19R
PRAIRIE DU CHI CLEAR     51  46  83 CALM      30.18R
PLATTEVILLE    FAIR      51  45  80 CALM      30.19R
$$

WIZ056-057-062-063-064-067-068-160200-
SOUTH CENTRAL WISCONSIN

CITY           SKY/WX    TMP DP  RH WIND       PRES   REMARKS
BARABOO/DELLS  CLEAR     50  45  83 CALM      30.16R
LONE ROCK      NOT AVBL
WATERTOWN      CLEAR     48  48 100 CALM      30.14S
MADISON        CLEAR     48  46  93 W3        30.16R
MIDDLETON      FAIR      47  46  95 CALM      30.17R
MONROE         CLEAR     50  48  93 NW5       30.16R
JANESVILLE     CLEAR     52  46  82 CALM      30.15S
$$

WIZ051-052-058>065-066-070>072-160200-
SOUTHEAST WISCONSIN

CITY           SKY/WX    TMP DP  RH WIND       PRES   REMARKS
MILWAUKEE      PTCLDY    51  48  89 NW3       30.15R
WAUKESHA       CLEAR     45  45 100 W3        30.16R
MILWAUKEE/TIMM CLEAR     50  46  87 CALM      30.15S
RACINE         PTCLDY    51  48  89 NW5       30.16R
BURLINGTON     CLEAR     48  46  93 CALM      30.15R
KENOSHA        PTCLDY    51  49  92 N5        30.15R
FOND DU LAC    CLEAR     50  46  86 SW5       30.14R
SHEBOYGAN      CLEAR     50  47  89 W5        30.14R
WEST BEND      CLEAR     50  46  87 CALM      30.15R
JUNEAU         CLEAR     50  47  92 CALM      30.15S
$$

LSZ147-162-160200-
LAKE SUPERIOR

STATION/POSITION TIME  TEMP    WIND        PRES    WAVE
                       AIR SEA DIR/SP/G            HT/PER
                 (UTC) (F)     (DEG/KT/KT) (MB)    (FT/S)
W MID LAKE BUOY  2350   51 48  240/ 14/ 14 1019.6F   1/ 4
DEVILS ISLAND    0000   53     230/ 11/ 13 1020.5F
PORT WING        0000   56     200/  4/  5 1021.0S
SAXON HARBOR     0000   49        CALM     1021.0S
$$

LMZ867-665-643>646-160200-
LAKE MICHIGAN

STATION/POSITION TIME  TEMP    WIND        PRES    WAVE
                       AIR SEA DIR/SP/G            HT/PER
                 (UTC) (F)     (DEG/KT/KT) (MB)    (FT/S)
N MID LAKE BUOY  2350   56 59  220/  6/  6 1019.2R   1/ 5
NORTHPORT PIER   0000   57     250/  1/  3 1019.0R
KEWAUNEE LAKESHO 0000   56     270/  1/  2 1018.6R
SHEBOYGAN LAKESH 0000   55 49  260/  5/  5 1020.4F
PORT WASHINGTON  0000   54     300/  2/  4 1020.7
ATWATER BUOY     0000   56     310/ 10/ 12 1021.4R
MILWAUKEE LAKESH 0000   55     320/  6/  8   N/A
S MID LAKE BUOY  2350   57 64  360/ 16/ 19 1019.8R   3/ 4
KENOSHA   LAKESH 0000   54     340/  7/  9 1020.3R
$$

TC  - TEMPERATURE IN CELSIUS
VSB - VISIBILITY IN STATUTE MILES
WCI - WIND CHILL INDEX
HX  - HEAT INDEX




USA.gov is the U.S. government's official web portal to all federal, state and local government web resources and services.